STARLINK-1560 (46036 NORAD) Tracking and Keplerian Element Data

This shows tracking and keplerian element data for the satellite.

Feedback or suggestion? Click here.




ElementValue
Catalog46036
NameSTARLINK-1560
Epoch Orbit1803
Epoch Day330.88999582
Epoch Year2020
RAAN149.8202
Inclination53.0019
Eccentricity0.0001991
Argument of Perigee82.6392
Mean Anonmoly277.4822
Mean Motion15.0557949
Decay Rate9.19E-06
L11 46036U 20055K 20330.88999582 .00000919 00000-0 82279-4 0 9998
L22 46036 53.0019 149.8202 0001991 82.6392 277.4822 15.05579490 18034

Live tracking and technical data element details for STARLINK-1560 (NORAD 46036). STARLINK-1560 can be tracked NOW for your location showing map with azimuth and elevation plus other details from your city location.

Track the satellite on the map from your city or location and see movement details for azimuth, elevation, latitude, longitude, range, height, and movement on the map or in text.







IsCatalogInMostPopularTable: catalog: 46036, numindb: 22
Update: records affected: 1



GetName: 46036 STARLINK-1560

Hit Count: updated at: Thu, 26 Nov 2020 23:17:12 GMT